FW9856 Weather Reports


Display with metric or nautical units.
time (UTC)temp
F
wind
direction
speed
MPH
gust
MPH
rain 1hr
in
rain 24hr
in
rain mn
in
humidity
%
barometer
mb
20260503200021 63 161 11.0 20.0 0.01 0.11 0.11 53 1009.3
20260503194518 62 202 9.0 18.0 0.01 0.11 0.11 57 1009.7
20260503193036 59 148 8.0 13.0 0.00 0.10 0.10 68 1010.1
20260503191518 57 134 7.0 14.0 0.01 0.10 0.10 70 1010.3
20260503190020 54 128 3.0 12.0 0.04 0.10 0.10 78 1010.8
20260503184525 51 111 5.0 10.0 0.05 0.10 0.10 84 1011.1
20260503183018 49 146 4.0 9.0 0.06 0.10 0.10 84 1011.4
20260503181519 49 180 5.0 12.0 0.05 0.09 0.09 82 1012.7
20260503180021 50 174 3.0 10.0 0.03 0.06 0.06 79 1013.7
20260503174528 50 200 5.0 15.0 0.04 0.05 0.05 81 1013.7
20260503173026 49 194 2.0 6.0 0.04 0.04 0.04 82 1013.8
20260503171523 49 198 4.0 9.0 0.04 0.04 0.04 81 1014.2
20260503081514 43 186 0.0 5.0 0.00 0.00 0.00 66 1015.4
20260503071533 44 186 2.0 5.0 0.00 0.00 0.00 65 1015.6
20260503054517 45 186 1.0 7.0 0.00 0.00 0.00 65 1016.3
20260503053022 45 188 1.0 6.0 0.00 0.00 0.00 65 1016.4
20260503051527 45 186 2.0 5.0 0.00 0.00 0.00 65 1016.5
20260503050017 45 192 1.0 5.0 0.00 0.00 0.00 66 1016.6
20260503044520 45 200 1.0 6.0 0.00 0.00 0.00 66 1016.6
20260503043017 45 195 0.0 3.0 0.00 0.00 0.00 66 1016.7
20260503041522 45 194 0.0 4.0 0.00 0.00 0.00 66 1016.7
20260503040027 45 199 0.0 3.0 0.00 0.00 0.00 65 1016.8
20260503034515 45 238 0.0 3.0 0.00 0.00 0.00 66 1016.7
20260503033017 45 242 0.0 2.0 0.00 0.00 0.00 66 1016.8
20260503031520 45 242 0.0 1.0 0.00 0.00 0.00 65 1017.1
20260503030022 46 242 0.0 2.0 0.00 0.00 0.00 64 1017.1
20260503024526 46 242 0.0 1.0 0.00 0.00 0.00 64 1017.2
20260503023026 47 242 0.0 2.0 0.00 0.00 0.00 62 1017.1
20260503021513 47 243 0.0 2.0 0.00 0.00 0.00 60 1017.2
20260503020020 48 244 0.0 1.0 0.00 0.00 0.00 58 1017.1
20260503014522 48 244 0.0 3.0 0.00 0.00 0.00 57 1017.0
20260503013031 49 266 0.0 1.0 0.00 0.00 0.00 56 1016.7
20260503011535 50 267 0.0 0.0 0.00 0.00 0.00 55 1016.7
20260503010016 51 267 0.0 1.0 0.00 0.00 0.00 53 1016.7
20260503004520 52 267 0.0 2.0 0.00 0.00 0.00 49 1016.8
20260503003023 53 267 0.0 6.0 0.00 0.00 0.00 48 1016.8
20260503001527 54 269 3.0 10.0 0.00 0.00 0.00 45 1016.8
20260503000028 55 257 3.0 8.0 0.00 0.00 0.00 43 1016.7
20260502234518 55 204 0.0 5.0 0.00 0.00 0.00 43 1017.0
20260502233021 54 300 1.0 5.0 0.00 0.00 0.00 45 1017.1
20260502231523 54 265 1.0 6.0 0.00 0.00 0.00 45 1017.2
20260502230028 55 311 3.0 9.0 0.00 0.00 0.00 43 1017.3
20260502224529 55 325 2.0 7.0 0.00 0.00 0.00 44 1017.3
20260502223019 55 257 2.0 7.0 0.00 0.00 0.00 44 1017.3
20260502221523 56 317 2.0 8.0 0.00 0.00 0.00 41 1017.3
20260502220028 55 261 1.0 4.0 0.00 0.00 0.00 45 1017.3
20260502214512 56 340 3.0 9.0 0.00 0.00 0.00 42 1017.4
20260502213015 56 249 2.0 7.0 0.00 0.00 0.00 41 1017.4
20260502211526 55 11 2.0 8.0 0.00 0.00 0.00 42 1017.4
20260502210006 55 265 2.0 4.0 0.00 0.00 0.00 40 1017.5
20260502204509 55 338 4.0 10.0 0.00 0.00 0.00 45 1017.7
20260502203011 55 327 2.0 10.0 0.00 0.00 0.00 44 1017.9
20260502201523 55 250 4.0 10.0 0.00 0.00 0.00 40 1018.0